TimeCST,TemperatureF,Dew PointF,Humidity,Sea Level PressureIn,VisibilityMPH,Wind Direction,Wind SpeedMPH,Gust SpeedMPH,PrecipitationIn,Events,Conditions,WindDirDegrees,DateUTC
12:53 AM,55.9,53.1,90,29.95,10.0,SSW,3.5,-,N/A,,Mostly Cloudy,210,2014-01-27 06:53:00
1:53 AM,55.9,53.1,90,29.93,10.0,South,6.9,-,0.00,,Overcast,170,2014-01-27 07:53:00
2:53 AM,57.0,54.0,89,29.93,10.0,South,5.8,-,0.00,Rain,Light Rain,190,2014-01-27 08:53:00
3:53 AM,57.0,54.0,89,29.93,10.0,South,3.5,-,0.00,,Overcast,180,2014-01-27 09:53:00
4:53 AM,57.9,55.0,90,29.92,10.0,South,5.8,-,N/A,,Overcast,170,2014-01-27 10:53:00
5:53 AM,57.9,55.0,90,29.93,10.0,South,3.5,-,N/A,,Overcast,180,2014-01-27 11:53:00
6:53 AM,59.0,55.0,87,29.94,10.0,South,6.9,-,N/A,,Mostly Cloudy,190,2014-01-27 12:53:00
7:53 AM,61.0,57.0,87,29.95,10.0,SSW,5.8,-,N/A,,Overcast,200,2014-01-27 13:53:00
8:53 AM,63.0,57.9,84,29.96,10.0,SSW,9.2,-,0.00,Rain,Light Rain,200,2014-01-27 14:53:00
9:26 AM,63.0,57.9,84,29.96,6.0,SSW,10.4,-,0.01,Rain,Light Rain,210,2014-01-27 15:26:00
9:53 AM,63.0,59.0,87,29.97,10.0,SSW,10.4,-,0.01,Rain,Light Rain,200,2014-01-27 15:53:00
10:46 AM,62.1,60.1,93,29.96,1.5,SSW,6.9,-,0.07,Rain,Heavy Rain,210,2014-01-27 16:46:00
10:53 AM,62.1,60.1,93,29.96,1.5,SSW,6.9,-,0.14,Rain,Heavy Rain,200,2014-01-27 16:53:00
11:02 AM,63.0,60.1,90,29.95,3.0,South,9.2,-,0.02,Rain,Rain,180,2014-01-27 17:02:00
11:35 AM,63.0,61.0,93,29.94,9.0,South,5.8,-,0.04,Rain,Light Rain,180,2014-01-27 17:35:00
11:53 AM,64.0,61.0,90,29.94,10.0,South,5.8,-,0.04,,Overcast,180,2014-01-27 17:53:00
12:16 PM,64.0,62.1,93,29.93,2.0,SW,6.9,-,0.02,Rain,Light Rain,220,2014-01-27 18:16:00
12:26 PM,64.0,61.0,90,29.92,5.0,North,10.4,-,0.02,Rain,Light Rain,350,2014-01-27 18:26:00
12:45 PM,60.1,57.0,90,29.92,10.0,North,9.2,-,0.02,,Overcast,350,2014-01-27 18:45:00
12:53 PM,60.1,57.0,90,29.92,9.0,North,9.2,-,0.02,,Overcast,360,2014-01-27 18:53:00
1:53 PM,64.0,57.9,80,29.91,10.0,North,6.9,-,N/A,,Mostly Cloudy,10,2014-01-27 19:53:00
2:53 PM,64.0,57.9,80,29.92,10.0,North,5.8,-,N/A,,Overcast,360,2014-01-27 20:53:00
3:53 PM,63.0,55.9,78,29.92,8.0,NNE,8.1,-,0.00,Rain,Light Rain,20,2014-01-27 21:53:00
4:48 PM,60.8,55.4,82,29.93,10.0,North,8.1,-,0.00,,Overcast,10,2014-01-27 22:48:00
4:53 PM,61.0,55.0,81,29.94,10.0,North,9.2,-,0.00,,Overcast,10,2014-01-27 22:53:00
5:53 PM,60.1,53.1,78,29.97,10.0,North,6.9,-,N/A,,Overcast,360,2014-01-27 23:53:00
6:53 PM,59.0,52.0,78,30.00,10.0,North,5.8,-,N/A,,Overcast,360,2014-01-28 00:53:00
7:53 PM,57.9,52.0,81,30.01,10.0,North,5.8,-,N/A,,Overcast,350,2014-01-28 01:53:00
8:53 PM,55.9,46.0,69,30.02,10.0,North,12.7,20.7,N/A,,Partly Cloudy,360,2014-01-28 02:53:00
9:53 PM,54.0,37.0,53,30.04,10.0,North,12.7,-,N/A,,Scattered Clouds,350,2014-01-28 03:53:00
10:53 PM,51.1,35.1,54,30.06,10.0,North,9.2,19.6,N/A,,Mostly Cloudy,350,2014-01-28 04:53:00
11:53 PM,48.9,28.9,46,30.07,10.0,North,15.0,21.9,N/A,,Overcast,350,2014-01-28 05:53:00